Tracking 29892 objects as of 21-Nov-2024
HD Live streaming from Space Station
objects crossing your sky now

STARLINK-5276

Track STARLINK-5276 now!
10-day predictions
STARLINK-5276 is classified as:


NORAD ID: 55399
Int'l Code: 2023-014J
Perigee: 577.2 km
Apogee: 581.1 km
Inclination: 70.0 °
Period: 96.1 minutes
Semi major axis: 6950 km
RCS: Unknown
Launch date: January 31, 2023
Source: United States (US)
Launch site: AIR FORCE WESTERN TEST RANGE (AFWTR)
Your satellite tracking list
Your tracking list is empty




NASA's NSSDC Master Catalog

Two Line Element Set (TLE):
1 55399U 23014J   24325.60075716 -.00000414  00000-0 -26871-4 0  9998
2 55399  69.9991 179.7160 0002796 269.7575  90.3263 14.98330617100109
Source of the keplerian elements: AFSPC